Regional Weather Roundup
Issued by NWS Newport/Morehead, NC

Current Version | Previous Version | Text Only | Print | Product List | Glossary On
Versions: 1 2 3 4 5 6 7 8 9 10 11 12 13 14 15 16 17 18 19 20 21 22 23 24 25 26 27 28 29 30 31 32 33 34 35 36 37 38 39 40 41 42 43 44 45 46 47 48 49 50
000
ASUS42 KMHX 141013
RWRMHX
WEATHER ROUNDUP FOR EASTERN NORTH CAROLINA
NATIONAL WEATHER SERVICE NEWPORT/MOREHEAD CITY NC
500 AM EST THU DEC 14 2017

NOTE: "FAIR" INDICATES FEW OR NO CLOUDS BELOW 12,000 FEET
WITH NO SIGNIFICANT WEATHER AND/OR OBSTRUCTIONS TO VISIBILITY

NCZ015>017-031-032-045>047-102-103-141100-
NORTH COAST

CITY           SKY/WX    TMP DP  RH WIND       PRES   REMARKS
EDENTON        CLEAR     43  27  54 SW12      29.70S
ELIZABETH CITY CLEAR     40  26  57 SW14      29.68S
KITTY HAWK     SUNNY     42  24  49 SW10G22   29.68F
MANTEO         CLEAR     42  28  56 SW17G23   29.70F

$$

NCZ045>047-081-094-103-104-141100-
CENTRAL COAST

CITY           SKY/WX    TMP DP  RH WIND       PRES   REMARKS
FRISCO         CLEAR     48  26  42 W15G33    29.74F

$$

NCZ095-097-098-100-101-141100-
SOUTHERN COAST

CITY           SKY/WX    TMP DP  RH WIND       PRES   REMARKS
BEAUFORT       CLEAR     50  27  40 W22G33    29.77S
CEDAR ISLAND   NOT AVBL
JACKSONVILLE   CLEAR     41  24  51 SW8       29.77S
PINEY ISLAND     N/A    N/A N/A N/A SW13      29.76F
WILMINGTON     CLEAR     44  24  45 SW10      29.80R


$$

NCZ011>013-027>030-043-044-078>080-089-090>093-098-141100-
COASTAL PLAIN

CITY           SKY/WX    TMP DP  RH WIND       PRES   REMARKS
AHOSKIE        PTCLDY    35  22  58 SW3       29.68R
CLINTON        CLEAR     35  25  68 S3        29.76S
ELIZABETHTOWN  NOT AVBL
GOLDSBORO      CLEAR     38  22  53 SW9       29.72S
GREENVILLE     CLEAR     37  23  56 SW7       29.75R
HAVELOCK       CLEAR     40  25  55 SW9       29.78S
KENANSVILLE    CLEAR     36  25  64 SW3       29.76S
KINSTON        NOT AVBL
NEW BERN       CLEAR     41  23  48 SW9G22    29.76F
RICHLANDS      CLEAR     34  24  67 SW6       29.77S
ROCKY MOUNT    CLOUDY    37  23  56 SW8       29.71R
WASHINGTON     CLEAR     38  23  54 SW10      29.72F
WHITEVILLE     CLEAR     43  24  46 SW7       29.79R

$$

AMZ130-135-150-152-154-156-158-170-250-252-270-ANZ085-086-088-633-658-670-141100-
MARINE OBSERVATIONS

STATION/POSITION TIME  TEMP    WIND        PRES    WAVE   SWELL
                       AIR SEA DIR/SP/G            HT/PER HT/PER
                 (UTC) (F)     (DEG/KT/KT) (MB)    (FT/S) (FT/S)
CHESAPEAKE LIGHT NOT AVBL
64 E VA BEACH    0950   51 60  240/ 29/ 37 1002.9    8/ 6
DUCK             0948   43 53  230/ 16/ 21 1004.5
2 E DUCK         1000      55                N/A     2/ 2
OREGON INLET     0936   45 42  220/ 23/ 27 1005.8
13E OREGON INLT  0948      57                N/A     5/ 4   2/ 9
HATTERAS CG      0948   48 51  250/ 21/ 29 1006.6
DIAMOND BUOY     1000   57 74  250/ 29/ 37 1006.9
CAPE LOOKOUT     1000          260/ 26/ 34 1007.9
BEAUFORT LAB     0948   51 51  260/  9/ 24 1007.9
30 SE NEW RVR IN 0908   56 62  240/ 25/ 31 1008.3
30 SE NEW RVR IN 1000      63                N/A     9/ 7
27 SE WRIGHTSVLE 0908   56 64  240/ 29/ 41 1009.4
5 SE WRIGHTSVLE  0908   52 56  250/ 19/ 25 1008.5
225 S CAPE HAT   0950   66 74  250/ 23/ 27 1011.3    8/ 6
41 SE CHARLESTON 0950      73  260/ 27/ 37 1011.3    9/ 7

$$




USA.gov is the U.S. government's official web portal to all federal, state and local government web resources and services.